• In Germany
  • List of Countries
  • For 7 days
  • Water Temperature
  • Satellite Maps
  • Weather Map
  • Weather Widgets
  • user-avatar
    Login

    Hourly Weather Chien

    Today, 25 February, Sunday

    Time Temperature Precipitation Wind Pressure Humidity
    00:00 +26°C° 0.5 mm 1 mps 739 mmHg 84%
    01:00 +25°C° 0.5 mm 1 mps 739 mmHg 86%
    02:00 +25°C° 0.5 mm 1 mps 739 mmHg 88%
    03:00 +25°C° 0.1 mm 1 mps 739 mmHg 89%
    04:00 +22°C° 0.1 mm 0 mps 739 mmHg 90%
    05:00 +22°C° 0.1 mm 0 mps 739 mmHg 92%
    06:00 +25°C° 0 mm 1 mps 740 mmHg 89%
    07:00 +26°C° 0 mm 1 mps 740 mmHg 86%
    08:00 +26°C° 0 mm 1 mps 740 mmHg 83%
    09:00 +28°C° 0 mm 1 mps 740 mmHg 76%
    10:00 +29°C° 0 mm 1 mps 740 mmHg 69%
    11:00 +31°C° 0 mm 1 mps 740 mmHg 62%
    12:00 +31°C° 0 mm 1 mps 740 mmHg 58%
    13:00 +32°C° 0 mm 1 mps 739 mmHg 55%
    14:00 +33°C° 0 mm 1 mps 738 mmHg 52%
    15:00 +32°C° 0 mm 1 mps 738 mmHg 56%
    16:00 +31°C° 0 mm 1 mps 738 mmHg 61%
    17:00 +30°C° 0 mm 1 mps 738 mmHg 65%
    18:00 +29°C° 0 mm 1 mps 739 mmHg 70%
    19:00 +28°C° 0 mm 1 mps 739 mmHg 74%
    20:00 +27°C° 0 mm 1 mps 739 mmHg 79%
    21:00 +27°C° 0 mm 1 mps 740 mmHg 81%
    22:00 +26°C° 0 mm 1 mps 740 mmHg 84%
    23:00 +26°C° 0 mm 1 mps 740 mmHg 86%

    Tomorrow, 26 February, Monday

    Time Temperature Precipitation Wind Pressure Humidity
    00:00 +26°C° 0 mm 1 mps 739 mmHg 87%
    01:00 +26°C° 0 mm 1 mps 739 mmHg 88%
    02:00 +26°C° 0 mm 1 mps 739 mmHg 89%
    03:00 +25°C° 0 mm 1 mps 739 mmHg 91%
    04:00 +25°C° 0 mm 1 mps 739 mmHg 93%
    05:00 +25°C° 0 mm 1 mps 739 mmHg 94%
    06:00 +25°C° 0 mm 1 mps 739 mmHg 90%
    07:00 +26°C° 0 mm 1 mps 740 mmHg 85%
    08:00 +27°C° 0 mm 1 mps 740 mmHg 80%
    09:00 +29°C° 0.1 mm 1 mps 740 mmHg 73%
    10:00 +30°C° 0.1 mm 1 mps 740 mmHg 67%
    11:00 +32°C° 0.1 mm 1 mps 740 mmHg 60%
    12:00 +33°C° 0 mm 1 mps 739 mmHg 56%
    13:00 +34°C° 0 mm 1 mps 738 mmHg 52%
    14:00 +35°C° 0 mm 1 mps 738 mmHg 48%
    15:00 +34°C° 0.3 mm 1 mps 738 mmHg 53%
    16:00 +33°C° 0.3 mm 1 mps 738 mmHg 58%
    17:00 +31°C° 0.3 mm 1 mps 738 mmHg 63%
    18:00 +30°C° 1.4 mm 1 mps 738 mmHg 72%
    19:00 +28°C° 1.4 mm 1 mps 739 mmHg 81%
    20:00 +26°C° 1.4 mm 1 mps 739 mmHg 90%
    21:00 +26°C° 2.3 mm 1 mps 740 mmHg 91%
    22:00 +26°C° 2.3 mm 1 mps 740 mmHg 92%
    23:00 +26°C° 2.3 mm 1 mps 740 mmHg 93%

    Day after tomorrow, 27 February, Tuesday

    Time Temperature Precipitation Wind Pressure Humidity
    00:00 +25°C° 0.2 mm 1 mps 740 mmHg 94%
    01:00 +25°C° 0.2 mm 1 mps 739 mmHg 95%
    02:00 +23°C° 0.2 mm 0 mps 739 mmHg 95%
    03:00 +23°C° 0 mm 0 mps 739 mmHg 96%
    04:00 +23°C° 0 mm 0 mps 739 mmHg 96%
    05:00 +23°C° 0 mm 0 mps 739 mmHg 96%
    06:00 +24°C° 0 mm 0 mps 740 mmHg 92%
    07:00 +24°C° 0 mm 0 mps 740 mmHg 89%
    08:00 +25°C° 0 mm 0 mps 741 mmHg 85%
    09:00 +27°C° 0.1 mm 0 mps 741 mmHg 75%
    10:00 +31°C° 0.1 mm 1 mps 741 mmHg 65%
    11:00 +33°C° 0.1 mm 1 mps 741 mmHg 56%
    12:00 +33°C° 0.1 mm 1 mps 740 mmHg 54%
    13:00 +34°C° 0.1 mm 1 mps 739 mmHg 52%
    14:00 +34°C° 0.1 mm 1 mps 738 mmHg 50%
    15:00 +32°C° 0.7 mm 1 mps 738 mmHg 59%
    16:00 +31°C° 0.7 mm 1 mps 738 mmHg 68%
    17:00 +29°C° 0.7 mm 1 mps 738 mmHg 76%
    18:00 +28°C° 0 mm 1 mps 739 mmHg 81%
    19:00 +27°C° 0 mm 1 mps 739 mmHg 85%
    20:00 +26°C° 0 mm 1 mps 740 mmHg 90%
    21:00 +26°C° 0 mm 1 mps 740 mmHg 92%
    22:00 +26°C° 0 mm 1 mps 740 mmHg 93%
    23:00 +25°C° 0 mm 1 mps 740 mmHg 95%

    28 February, Wednesday

    Time Temperature Precipitation Wind Pressure Humidity
    00:00 +25°C° 0 mm 1 mps 740 mmHg 96%
    01:00 +25°C° 0 mm 1 mps 739 mmHg 97%
    02:00 +23°C° 0 mm 0 mps 739 mmHg 98%
    03:00 +23°C° 0 mm 0 mps 739 mmHg 98%
    04:00 +22°C° 0 mm 0 mps 739 mmHg 98%
    05:00 +22°C° 0 mm 0 mps 739 mmHg 98%
    06:00 +26°C° 0 mm 1 mps 740 mmHg 93%
    07:00 +27°C° 0 mm 1 mps 740 mmHg 87%
    08:00 +28°C° 0 mm 1 mps 741 mmHg 81%
    09:00 +30°C° 0.1 mm 1 mps 741 mmHg 72%
    10:00 +32°C° 0.1 mm 1 mps 740 mmHg 62%
    11:00 +35°C° 0.1 mm 1 mps 740 mmHg 53%
    12:00 +34°C° 1 mm 1 mps 739 mmHg 55%
    13:00 +34°C° 1 mm 1 mps 738 mmHg 58%
    14:00 +33°C° 1 mm 1 mps 738 mmHg 60%
    15:00 +32°C° 1.4 mm 1 mps 738 mmHg 66%
    16:00 +31°C° 1.4 mm 1 mps 738 mmHg 72%
    17:00 +30°C° 1.4 mm 1 mps 738 mmHg 78%
    18:00 +29°C° 0.1 mm 1 mps 739 mmHg 82%
    19:00 +28°C° 0.1 mm 1 mps 739 mmHg 87%
    20:00 +26°C° 0.1 mm 2 mps 740 mmHg 91%
    21:00 +26°C° 0.2 mm 1 mps 740 mmHg 93%
    22:00 +26°C° 0.2 mm 1 mps 740 mmHg 95%
    23:00 +25°C° 0.2 mm 1 mps 740 mmHg 97%

    1 March, Thursday

    Time Temperature Precipitation Wind Pressure Humidity
    00:00 +25°C° 0 mm 1 mps 740 mmHg 97%
    01:00 +25°C° 0 mm 1 mps 739 mmHg 97%
    02:00 +25°C° 0 mm 1 mps 739 mmHg 97%
    03:00 +25°C° 0 mm 1 mps 739 mmHg 97%
    04:00 +25°C° 0 mm 1 mps 739 mmHg 98%
    05:00 +23°C° 0 mm 0 mps 740 mmHg 98%
    06:00 +26°C° 0 mm 1 mps 740 mmHg 94%
    07:00 +26°C° 0 mm 1 mps 740 mmHg 90%
    08:00 +27°C° 0 mm 1 mps 741 mmHg 86%
    09:00 +29°C° 0 mm 1 mps 741 mmHg 77%
    10:00 +31°C° 0 mm 1 mps 740 mmHg 69%
    11:00 +33°C° 0 mm 1 mps 740 mmHg 60%
    12:00 +33°C° 0.2 mm 1 mps 739 mmHg 59%
    13:00 +33°C° 0.2 mm 1 mps 738 mmHg 58%
    14:00 +34°C° 0.2 mm 1 mps 738 mmHg 57%
    15:00 +32°C° 1 mm 1 mps 738 mmHg 66%
    16:00 +30°C° 1 mm 1 mps 738 mmHg 76%
    17:00 +28°C° 1 mm 2 mps 739 mmHg 85%
    18:00 +28°C° 0.2 mm 2 mps 739 mmHg 88%
    19:00 +27°C° 0.2 mm 2 mps 740 mmHg 91%
    20:00 +26°C° 0.2 mm 1 mps 740 mmHg 94%
    21:00 +25°C° 0 mm 1 mps 740 mmHg 95%
    22:00 +25°C° 0 mm 1 mps 740 mmHg 97%
    23:00 +25°C° 0 mm 1 mps 741 mmHg 98%

    2 March, Friday

    Time Temperature Precipitation Wind Pressure Humidity
    00:00 +25°C° 0 mm 1 mps 740 mmHg 98%
    01:00 +24°C° 0 mm 1 mps 740 mmHg 98%
    02:00 +24°C° 0 mm 1 mps 739 mmHg 99%
    03:00 +24°C° 0 mm 1 mps 739 mmHg 98%
    04:00 +24°C° 0 mm 1 mps 739 mmHg 97%
    05:00 +24°C° 0 mm 1 mps 739 mmHg 97%
    06:00 +25°C° 0 mm 1 mps 740 mmHg 94%
    07:00 +26°C° 0 mm 1 mps 740 mmHg 90%
    08:00 +26°C° 0 mm 1 mps 740 mmHg 87%
    09:00 +29°C° 0 mm 1 mps 740 mmHg 76%
    10:00 +31°C° 0 mm 1 mps 740 mmHg 64%
    11:00 +35°C° 0 mm 2 mps 740 mmHg 53%
    12:00 +34°C° 0.1 mm 1 mps 739 mmHg 52%
    13:00 +35°C° 0.1 mm 1 mps 739 mmHg 51%
    14:00 +35°C° 0.1 mm 1 mps 738 mmHg 50%
    15:00 +34°C° 0.5 mm 2 mps 738 mmHg 58%
    16:00 +32°C° 0.5 mm 2 mps 738 mmHg 66%
    17:00 +30°C° 0.5 mm 2 mps 738 mmHg 75%
    18:00 +29°C° 0.3 mm 2 mps 739 mmHg 81%
    19:00 +27°C° 0.3 mm 1 mps 739 mmHg 87%
    20:00 +26°C° 0.3 mm 1 mps 740 mmHg 93%
    21:00 +26°C° 0 mm 1 mps 740 mmHg 94%
    22:00 +25°C° 0 mm 1 mps 740 mmHg 95%
    23:00 +25°C° 0 mm 1 mps 740 mmHg 96%
    Show more